Location: Unspecified
(41.1637°N, 24.2901°E)
Time: 22:13:33
(UTC+02:00)

ISS - Pass Details

Date: 13 September 2019
Orbit: 411 x 421 km, 51.6° (Epoch: 19 September)

Event Time Altitude Azimuth Distance (km) Brightness Sun altitude
Exits shadow 03:57:43 26° 358° (N) 869 -2.0 -22.9°
Maximum altitude 03:58:31 29° 25° (NNE) 800 -1.9 -22.8°
Drops below altitude 10° 04:01:29 10° 87° (E) 1,489 -0.1 -22.3°
Sets 04:03:45 0° 99° (E) 2,352 0.9 -21.9°
